Little Rock AFB, AR

5:06 PM CST on February 22, 2018 (GMT -0600)
Little Rock Air Force Base

Weather History for KLRF - February, 2014

Change the Weather History Date:

Sunday, February 23, 2014

  Actual Average Record
Temperature  
Mean Temperature 47 °F -  
Max Temperature 59 °F 59 °F 77 °F (2017)
Min Temperature 35 °F 34 °F 21 °F (2015)
Degree Days  
Heating Degree Days 18    
Moisture  
Dew Point 34 °F    
Average Humidity 65    
Maximum Humidity 89    
Minimum Humidity 44    
Precipitation  
Precipitation 0.00 in - - ()
Sea Level Pressure  
Sea Level Pressure 30.06 in    
Wind  
Wind Speed 5 mph (NE)    
Max Wind Speed 16 mph    
Max Gust Speed 25 mph    
Visibility 10 miles    
Events      
Averages and records for this station are not official NWS values.
T = Trace of Precipitation, MM = Missing Value Source: NWS Daily Summary

Daily Weather History Graph

Daily Weather History Graph

Search for Another Location

Airport or City:

Trip Planner

Search our weather history database for the weather conditions in past years. The results will help you decide how hot, cold, wet, or windy it might be!

Date:

Astronomy

Feb. 23, 2014 Rise Set
Actual Time 6:45 AM CST 5:59 PM CST
Civil Twilight 6:19 AM CST 6:24 PM CST
Nautical Twilight 5:50 AM CST 6:53 PM CST
Astronomical Twilight 5:21 AM CST 7:23 PM CST
Moon 1:37 AM CST (2/23) 12:08 PM CST (2/23)
Length of Visible Light 12h 04m
Length of Day
11h 13m
Last Quarter, 38% of the Moon is Illuminated
Feb 23
Last Quarter
Mar 1
New
Mar 8
First Quarter
Mar 16
Full
Mar 23
Last Quarter

Hourly Weather History & Observations

Time (CST) Temp. Windchill Dew Point Humidity Pressure Visibility Wind Dir Wind Speed Gust Speed Precip Events Conditions
12:58 AM 38.3 °F - 33.8 °F 84% 29.96 in 10.0 mi Calm Calm - N/A   Clear
1:58 AM 37.4 °F - 33.3 °F 85% 29.95 in 10.0 mi NE 2.3 mph - N/A   Clear
2:58 AM 36.9 °F - 33.6 °F 88% 29.94 in 10.0 mi NE 1.2 mph - N/A   Clear
3:58 AM 36.7 °F - 33.1 °F 87% 29.93 in 10.0 mi East 1.2 mph - N/A   Clear
4:58 AM 36.7 °F - 33.6 °F 89% 29.94 in 10.0 mi Calm Calm - N/A   Clear
5:58 AM 35.6 °F - 32.5 °F 89% 29.96 in 10.0 mi ENE 1.2 mph - N/A   Clear
6:58 AM 36.0 °F - 32.9 °F 89% 29.97 in 10.0 mi Calm Calm - N/A   Clear
7:58 AM 41.5 °F - 36.9 °F 83% 30.00 in 10.0 mi Calm Calm - N/A   Clear
8:58 AM 53.2 °F - 38.1 °F 57% 30.01 in 10.0 mi Calm Calm - N/A   Clear
9:58 AM 57.4 °F - 37.8 °F 48% 30.02 in 10.0 mi North 10.4 mph - N/A   Partly Cloudy
10:58 AM 59.5 °F - 37.6 °F 44% 30.02 in 10.0 mi NE 11.5 mph - N/A   Clear
11:58 AM 57.9 °F - 38.1 °F 48% 30.04 in 10.0 mi ENE 9.2 mph - N/A   Scattered Clouds
12:58 PM 56.5 °F - 37.0 °F 48% 30.04 in 10.0 mi NE 10.4 mph - N/A   Overcast
1:58 PM 54.3 °F - 37.4 °F 53% 30.05 in 10.0 mi ENE 10.4 mph - N/A   Overcast
2:58 PM 53.4 °F - 36.5 °F 53% 30.08 in 10.0 mi NE 12.7 mph - N/A   Overcast
3:58 PM 52.3 °F - 37.0 °F 56% 30.09 in 10.0 mi NE 10.4 mph - N/A   Mostly Cloudy
4:58 PM 51.3 °F - 36.1 °F 56% 30.12 in 10.0 mi NE 12.7 mph - N/A   Overcast
5:58 PM 50.0 °F - 34.7 °F 56% 30.14 in 10.0 mi NNE 12.7 mph - N/A   Overcast
6:58 PM 49.5 °F - 33.8 °F 55% 30.17 in 10.0 mi NNE 16.1 mph 25.3 mph N/A   Overcast
7:58 PM 48.6 °F - 34.3 °F 58% 30.19 in 10.0 mi NE 12.7 mph 21.9 mph N/A   Overcast
8:58 PM 45.5 °F 41.3 °F 32.5 °F 61% 30.20 in 10.0 mi NNE 8.1 mph - N/A   Clear
9:58 PM 43.5 °F 37.9 °F 31.1 °F 62% 30.22 in 10.0 mi NE 10.4 mph - N/A   Clear
10:58 PM 41.5 °F 35.4 °F 28.4 °F 60% 30.24 in 10.0 mi NE 10.4 mph - N/A   Clear
11:58 PM 39.9 °F 33.9 °F 25.2 °F 56% 30.24 in 10.0 mi NE 9.2 mph - N/A   Clear